UAL2709 KDTW-KEYW

Flight info

Callsign UAL2709
Flight time 2h 28m
Altitude 38000
Route CLVIN3 STAZE FLM/N0450F370 J43 VXV/N0451F380 THRSR HONID/N0450F370 Q81 BULZI KRAKN1
Aircraft B38M/M-SDE1FGHILORVWXY/HB1

Departure

Time 2026-05-05 21:25
Airport Detroit Metropolitan Wayne County Airport (KDTW)

Arrival

Time 2026-05-05 23:54
Airport Key West International Airport (KEYW)
Time Latitude Longitude Altitude Speed Heading
2026-05-05 21:01 42.21404 -83.35321 639 ft 0 kts 298°
2026-05-05 21:16 42.21399 -83.35307 639 ft 2 kts 298°
2026-05-05 21:16 42.21391 -83.35290 639 ft 2 kts 299°
2026-05-05 21:16 42.21384 -83.35272 639 ft 2 kts 298°
2026-05-05 21:17 42.21377 -83.35254 639 ft 2 kts 299°
2026-05-05 21:17 42.21370 -83.35236 639 ft 2 kts 298°
2026-05-05 21:17 42.21360 -83.35222 639 ft 2 kts 336°
2026-05-05 21:17 42.21346 -83.35222 639 ft 2 kts 35°
2026-05-05 21:18 42.21333 -83.35233 639 ft 2 kts 26°
2026-05-05 21:18 42.21328 -83.35237 639 ft 0 kts 26°
2026-05-05 21:18 42.21326 -83.35238 639 ft 0 kts 26°
2026-05-05 21:19 42.21330 -83.35236 639 ft 1 kts 24°
2026-05-05 21:20 42.21347 -83.35226 639 ft 3 kts 21°
2026-05-05 21:20 42.21377 -83.35211 639 ft 5 kts 21°
2026-05-05 21:20 42.21410 -83.35193 639 ft 5 kts 24°
2026-05-05 21:20 42.21450 -83.35169 639 ft 7 kts 24°
2026-05-05 21:21 42.21503 -83.35136 639 ft 9 kts 25°
2026-05-05 21:21 42.21563 -83.35077 639 ft 13 kts 44°
2026-05-05 21:21 42.21643 -83.34973 639 ft 18 kts 44°
2026-05-05 21:21 42.21742 -83.34845 639 ft 19 kts 44°
2026-05-05 21:22 42.21830 -83.34720 639 ft 17 kts 70°
2026-05-05 21:22 42.21835 -83.34557 639 ft 16 kts 82°
2026-05-05 21:22 42.21915 -83.34458 639 ft 15 kts 28°
2026-05-05 21:22 42.22010 -83.34391 639 ft 15 kts 28°
2026-05-05 21:23 42.22114 -83.34313 639 ft 19 kts 29°
2026-05-05 21:23 42.22245 -83.34216 639 ft 23 kts 28°
2026-05-05 21:23 42.22390 -83.34110 637 ft 23 kts 28°
2026-05-05 21:23 42.22536 -83.34002 636 ft 23 kts 28°
2026-05-05 21:24 42.22677 -83.33900 636 ft 22 kts 28°
2026-05-05 21:24 42.22809 -83.33798 636 ft 21 kts 28°
2026-05-05 21:24 42.22855 -83.33722 636 ft 9 kts 95°
2026-05-05 21:24 42.22824 -83.33644 636 ft 9 kts 146°
2026-05-05 21:25 42.22768 -83.33655 636 ft 13 kts 207°
2026-05-05 21:25 42.22390 -83.33939 636 ft 106 kts 210°
2026-05-05 21:25 42.21513 -83.34589 644 ft 176 kts 210°
2026-05-05 21:25 42.20360 -83.35386 1350 ft 194 kts 203°
2026-05-05 21:26 42.19030 -83.35982 2139 ft 203 kts 204°
2026-05-05 21:26 42.17760 -83.36553 2888 ft 205 kts 200°
2026-05-05 21:26 42.16315 -83.37065 3655 ft 225 kts 200°
2026-05-05 21:26 42.14796 -83.37644 4647 ft 233 kts 203°
2026-05-05 21:27 42.13271 -83.38281 5671 ft 238 kts 204°
2026-05-05 21:27 42.11671 -83.38979 6589 ft 248 kts 205°
2026-05-05 21:27 42.09987 -83.39717 6860 ft 258 kts 205°
2026-05-05 21:27 42.08284 -83.40462 6852 ft 257 kts 204°
2026-05-05 21:28 42.06575 -83.41153 6843 ft 260 kts 202°
2026-05-05 21:28 42.04805 -83.41743 6845 ft 258 kts 200°
2026-05-05 21:28 42.03063 -83.42272 6847 ft 257 kts 200°
2026-05-05 21:28 42.01295 -83.42832 6848 ft 261 kts 200°
2026-05-05 21:29 41.99554 -83.43405 6842 ft 259 kts 200°
2026-05-05 21:29 41.97806 -83.44003 6850 ft 257 kts 201°
2026-05-05 21:29 41.96053 -83.44504 6846 ft 259 kts 195°
2026-05-05 21:29 41.94162 -83.44546 7294 ft 284 kts 181°
2026-05-05 21:30 41.92262 -83.44238 8549 ft 279 kts 180°
2026-05-05 21:30 41.90418 -83.43868 9893 ft 269 kts 180°
2026-05-05 21:30 41.88559 -83.43542 10748 ft 275 kts 181°
2026-05-05 21:30 41.86628 -83.43315 11472 ft 284 kts 182°
2026-05-05 21:31 41.84636 -83.43085 12136 ft 295 kts 182°
2026-05-05 21:31 41.82526 -83.42834 12714 ft 308 kts 182°
2026-05-05 21:31 41.80365 -83.42600 13198 ft 322 kts 182°
2026-05-05 21:31 41.78052 -83.42299 13634 ft 338 kts 180°
2026-05-05 21:32 41.75675 -83.41948 14066 ft 352 kts 180°
2026-05-05 21:32 41.73205 -83.41608 14542 ft 361 kts 182°
2026-05-05 21:32 41.70705 -83.41606 15253 ft 357 kts 192°
2026-05-05 21:32 41.68313 -83.42255 16007 ft 352 kts 201°
2026-05-05 21:33 41.65998 -83.43240 16601 ft 355 kts 204°
2026-05-05 21:33 41.63672 -83.44347 17266 ft 356 kts 204°
2026-05-05 21:33 41.61305 -83.45464 17845 ft 360 kts 203°
2026-05-05 21:33 41.58928 -83.46568 18395 ft 364 kts 204°
2026-05-05 21:34 41.56539 -83.47683 18904 ft 369 kts 204°
2026-05-05 21:34 41.54100 -83.48798 19390 ft 374 kts 204°
2026-05-05 21:34 41.51622 -83.49928 20029 ft 374 kts 203°
2026-05-05 21:34 41.49164 -83.51063 20492 ft 379 kts 203°
2026-05-05 21:35 41.46676 -83.52203 20913 ft 384 kts 204°
2026-05-05 21:35 41.44141 -83.53355 21558 ft 383 kts 204°
2026-05-05 21:35 41.41600 -83.54491 21898 ft 390 kts 205°
2026-05-05 21:35 41.39044 -83.55643 22372 ft 392 kts 203°
2026-05-05 21:36 41.36415 -83.56811 22789 ft 396 kts 203°
2026-05-05 21:36 41.33793 -83.57964 23260 ft 398 kts 204°
2026-05-05 21:36 41.31192 -83.59103 23767 ft 398 kts 204°
2026-05-05 21:36 41.28548 -83.60280 24239 ft 400 kts 205°
2026-05-05 21:37 41.25922 -83.61457 24679 ft 402 kts 205°
2026-05-05 21:37 41.23248 -83.62658 25036 ft 406 kts 204°
2026-05-05 21:37 41.20560 -83.63855 25415 ft 409 kts 205°
2026-05-05 21:37 41.17832 -83.65077 25658 ft 415 kts 204°
2026-05-05 21:38 41.15078 -83.66317 26030 ft 418 kts 205°
2026-05-05 21:38 41.12318 -83.67561 26562 ft 418 kts 205°
2026-05-05 21:38 41.09549 -83.68797 26893 ft 422 kts 204°
2026-05-05 21:38 41.06736 -83.70051 27110 ft 429 kts 204°
2026-05-05 21:39 41.03883 -83.71313 27576 ft 429 kts 205°
2026-05-05 21:39 41.01036 -83.72575 28079 ft 428 kts 205°
2026-05-05 21:39 40.98187 -83.73845 28321 ft 433 kts 205°
2026-05-05 21:39 40.95308 -83.75135 28624 ft 436 kts 205°
2026-05-05 21:40 40.93456 -83.75951 28927 ft 435 kts 205°
2026-05-05 21:40 40.90611 -83.77195 29659 ft 429 kts 205°
2026-05-05 21:40 40.87759 -83.78443 30176 ft 427 kts 205°
2026-05-05 21:40 40.84940 -83.79682 30617 ft 427 kts 206°
2026-05-05 21:41 40.82134 -83.80920 30993 ft 428 kts 207°
2026-05-05 21:41 40.79275 -83.82180 31470 ft 427 kts 206°
2026-05-05 21:41 40.76489 -83.83405 31881 ft 427 kts 207°
2026-05-05 21:41 40.73654 -83.84654 32249 ft 427 kts 207°
2026-05-05 21:42 40.70851 -83.85893 32440 ft 432 kts 207°
2026-05-05 21:42 40.67972 -83.87164 32700 ft 435 kts 208°
2026-05-05 21:42 40.65086 -83.88435 32969 ft 436 kts 208°
2026-05-05 21:42 40.62252 -83.89675 33457 ft 434 kts 208°
2026-05-05 21:43 40.59391 -83.90926 33851 ft 432 kts 208°
2026-05-05 21:43 40.56543 -83.92173 34197 ft 432 kts 209°
2026-05-05 21:43 40.53661 -83.93439 34382 ft 436 kts 209°
2026-05-05 21:43 40.50802 -83.94693 34719 ft 435 kts 210°
2026-05-05 21:44 40.47956 -83.95937 35136 ft 433 kts 210°
2026-05-05 21:44 40.45077 -83.97195 35346 ft 435 kts 210°
2026-05-05 21:44 40.42229 -83.98439 35678 ft 435 kts 210°
2026-05-05 21:44 40.39355 -83.99690 36078 ft 432 kts 211°
2026-05-05 21:45 40.36506 -84.00929 36289 ft 434 kts 211°
2026-05-05 21:45 40.33635 -84.02149 36515 ft 437 kts 209°
2026-05-05 21:45 40.30700 -84.03228 36808 ft 442 kts 206°
2026-05-05 21:45 40.27642 -84.04044 36993 ft 452 kts 202°
2026-05-05 21:46 40.24494 -84.04585 37286 ft 457 kts 199°
2026-05-05 21:46 40.21333 -84.04958 37525 ft 460 kts 197°
2026-05-05 21:46 40.18129 -84.05240 37792 ft 461 kts 196°
2026-05-05 21:46 40.14893 -84.05496 37816 ft 466 kts 196°
2026-05-05 21:47 40.08485 -84.05957 37831 ft 465 kts 196°
2026-05-05 21:47 40.01985 -84.06438 37824 ft 467 kts 196°
2026-05-05 21:48 39.95492 -84.06921 37830 ft 466 kts 196°
2026-05-05 21:48 39.89068 -84.07405 37832 ft 466 kts 196°
2026-05-05 21:49 39.82559 -84.07915 37825 ft 466 kts 196°
2026-05-05 21:49 39.76088 -84.08415 37831 ft 465 kts 196°
2026-05-05 21:50 39.69622 -84.08907 37825 ft 467 kts 196°
2026-05-05 21:50 39.63102 -84.09419 37835 ft 468 kts 196°
2026-05-05 21:51 39.56607 -84.09917 37829 ft 467 kts 196°
2026-05-05 21:51 39.50089 -84.10415 37832 ft 469 kts 196°
2026-05-05 21:52 39.40319 -84.11159 37826 ft 469 kts 196°
2026-05-05 21:53 39.33811 -84.11647 37827 ft 464 kts 196°
2026-05-05 21:53 39.27318 -84.12150 37824 ft 466 kts 196°
2026-05-05 21:54 39.20796 -84.12663 37835 ft 472 kts 196°
2026-05-05 21:54 39.14270 -84.13157 37833 ft 468 kts 196°
2026-05-05 21:55 39.07696 -84.13663 37837 ft 476 kts 196°
2026-05-05 21:55 39.01024 -84.14186 37842 ft 487 kts 196°
2026-05-05 21:56 38.94298 -84.15011 37831 ft 475 kts 204°
2026-05-05 21:56 38.91125 -84.16064 37841 ft 460 kts 212°
2026-05-05 21:56 38.88152 -84.17481 37837 ft 449 kts 216°
2026-05-05 21:57 38.82469 -84.20731 37832 ft 445 kts 218°
2026-05-05 21:57 38.76821 -84.24116 37836 ft 448 kts 218°
2026-05-05 21:58 38.71158 -84.27447 37833 ft 446 kts 218°
2026-05-05 21:58 38.65260 -84.30305 37828 ft 468 kts 205°
2026-05-05 21:58 38.61928 -84.30740 37834 ft 491 kts 192°
2026-05-05 21:59 38.58479 -84.30502 37836 ft 501 kts 187°
2026-05-05 21:59 38.51470 -84.29390 37833 ft 509 kts 184°
2026-05-05 22:00 38.44492 -84.28080 37834 ft 506 kts 183°
2026-05-05 22:00 38.37468 -84.26840 37839 ft 508 kts 184°
2026-05-05 22:01 38.30450 -84.25687 37835 ft 503 kts 185°
2026-05-05 22:01 38.23513 -84.24591 37844 ft 505 kts 185°
2026-05-05 22:02 38.16519 -84.23515 37852 ft 505 kts 185°
2026-05-05 22:02 38.09482 -84.22433 37847 ft 507 kts 185°
2026-05-05 22:03 38.02447 -84.21347 37852 ft 507 kts 185°
2026-05-05 22:03 37.95476 -84.20267 37857 ft 507 kts 185°
2026-05-05 22:04 37.88475 -84.19184 37867 ft 505 kts 185°
2026-05-05 22:04 37.81477 -84.18105 37852 ft 506 kts 184°
2026-05-05 22:05 37.74492 -84.17035 37865 ft 507 kts 185°
2026-05-05 22:05 37.67349 -84.15951 37871 ft 511 kts 184°
2026-05-05 22:06 37.60339 -84.14864 37877 ft 506 kts 184°
2026-05-05 22:06 37.53235 -84.13787 37877 ft 513 kts 184°
2026-05-05 22:07 37.46115 -84.12697 37882 ft 510 kts 184°
2026-05-05 22:07 37.39034 -84.11613 37875 ft 507 kts 184°
2026-05-05 22:08 37.31997 -84.10554 37877 ft 511 kts 184°
2026-05-05 22:08 37.24917 -84.09486 37886 ft 508 kts 184°
2026-05-05 22:09 37.17839 -84.08411 37891 ft 511 kts 184°
2026-05-05 22:09 37.10760 -84.07335 37903 ft 511 kts 184°
2026-05-05 22:10 37.03663 -84.06271 37903 ft 513 kts 184°
2026-05-05 22:10 36.96537 -84.05200 37902 ft 513 kts 184°
2026-05-05 22:11 36.89445 -84.04134 37900 ft 511 kts 184°
2026-05-05 22:11 36.82335 -84.03078 37905 ft 514 kts 184°
2026-05-05 22:12 36.75195 -84.02003 37903 ft 509 kts 184°
2026-05-05 22:12 36.68058 -84.00942 37905 ft 512 kts 183°
2026-05-05 22:13 36.60922 -83.99892 37899 ft 510 kts 184°
2026-05-05 22:13 36.53841 -83.98837 37904 ft 515 kts 184°
2026-05-05 22:14 36.46638 -83.97769 37912 ft 513 kts 184°
2026-05-05 22:14 36.39601 -83.96711 37914 ft 510 kts 184°
2026-05-05 22:15 36.32478 -83.95658 37913 ft 514 kts 183°
2026-05-05 22:15 36.25304 -83.94606 37913 ft 514 kts 184°
2026-05-05 22:16 36.18186 -83.93558 37909 ft 515 kts 184°
2026-05-05 22:16 36.11084 -83.92511 37915 ft 512 kts 184°
2026-05-05 22:17 36.03950 -83.91466 37920 ft 514 kts 184°
2026-05-05 22:17 35.96792 -83.90446 37920 ft 516 kts 185°
2026-05-05 22:18 35.89707 -83.90106 37927 ft 501 kts 194°
2026-05-05 22:18 35.82876 -83.91125 37929 ft 486 kts 201°
2026-05-05 22:19 35.76326 -83.92677 37931 ft 484 kts 204°
2026-05-05 22:19 35.69729 -83.94389 37926 ft 487 kts 204°
2026-05-05 22:20 35.63095 -83.96082 37931 ft 485 kts 203°
2026-05-05 22:20 35.56446 -83.97737 37945 ft 484 kts 203°
2026-05-05 22:21 35.49757 -83.99379 37936 ft 485 kts 203°
2026-05-05 22:21 35.43093 -84.00994 37962 ft 486 kts 203°
2026-05-05 22:22 35.36435 -84.02602 37987 ft 487 kts 203°
2026-05-05 22:22 35.29729 -84.04224 38017 ft 488 kts 202°
2026-05-05 22:23 35.23057 -84.05822 38034 ft 488 kts 202°
2026-05-05 22:23 35.16309 -84.07436 38031 ft 487 kts 202°
2026-05-05 22:24 35.09571 -84.09055 38020 ft 490 kts 202°
2026-05-05 22:24 35.02846 -84.10656 38007 ft 491 kts 202°
2026-05-05 22:25 34.96133 -84.12257 37996 ft 491 kts 202°
2026-05-05 22:25 34.89399 -84.13861 38015 ft 491 kts 202°
2026-05-05 22:26 34.82709 -84.15447 38019 ft 491 kts 202°
2026-05-05 22:26 34.75943 -84.17055 38014 ft 493 kts 202°
2026-05-05 22:27 34.69216 -84.18646 38010 ft 490 kts 202°
2026-05-05 22:27 34.62490 -84.20245 37998 ft 491 kts 202°
2026-05-05 22:28 34.55825 -84.21819 37987 ft 490 kts 202°
2026-05-05 22:28 34.49063 -84.23415 37978 ft 492 kts 202°
2026-05-05 22:29 34.42358 -84.24990 37981 ft 492 kts 202°
2026-05-05 22:29 34.35598 -84.26582 37987 ft 491 kts 202°
2026-05-05 22:30 34.28881 -84.28148 37983 ft 489 kts 202°
2026-05-05 22:30 34.22202 -84.29716 37988 ft 491 kts 202°
2026-05-05 22:31 34.15492 -84.31291 37994 ft 495 kts 202°
2026-05-05 22:31 34.08772 -84.32862 37990 ft 492 kts 202°
2026-05-05 22:32 34.02005 -84.34448 37989 ft 493 kts 202°
2026-05-05 22:32 33.95298 -84.36006 37993 ft 491 kts 202°
2026-05-05 22:33 33.88575 -84.37569 37994 ft 490 kts 202°
2026-05-05 22:33 33.81842 -84.39132 37996 ft 492 kts 202°
2026-05-05 22:34 33.75110 -84.40696 37996 ft 493 kts 202°
2026-05-05 22:34 33.68351 -84.42255 37998 ft 489 kts 202°
2026-05-05 22:35 33.61608 -84.43455 37995 ft 504 kts 195°
2026-05-05 22:35 33.54481 -84.43676 38001 ft 513 kts 189°
2026-05-05 22:36 33.47355 -84.43436 38000 ft 510 kts 188°
2026-05-05 22:36 33.40257 -84.43159 38005 ft 514 kts 188°
2026-05-05 22:37 33.33126 -84.42937 38000 ft 511 kts 189°
2026-05-05 22:37 33.26580 -84.42770 38004 ft 508 kts 189°
2026-05-05 22:38 33.19447 -84.42625 37990 ft 513 kts 189°
2026-05-05 22:38 33.12368 -84.42477 37978 ft 508 kts 189°
2026-05-05 22:39 33.05224 -84.42337 37986 ft 512 kts 189°
2026-05-05 22:39 32.98078 -84.42198 37989 ft 513 kts 189°
2026-05-05 22:40 32.90990 -84.42059 37990 ft 512 kts 189°
2026-05-05 22:40 32.83790 -84.41909 37986 ft 512 kts 189°
2026-05-05 22:41 32.76657 -84.41760 37980 ft 514 kts 189°
2026-05-05 22:41 32.69532 -84.41612 37971 ft 509 kts 190°
2026-05-05 22:42 32.62389 -84.41479 37974 ft 514 kts 190°
2026-05-05 22:42 32.55251 -84.41336 37979 ft 512 kts 189°
2026-05-05 22:43 32.48104 -84.41189 37979 ft 513 kts 190°
2026-05-05 22:43 32.40919 -84.41040 37978 ft 513 kts 190°
2026-05-05 22:44 32.33789 -84.40891 37979 ft 513 kts 190°
2026-05-05 22:44 32.26630 -84.40753 37977 ft 512 kts 190°
2026-05-05 22:45 32.19515 -84.40615 37979 ft 513 kts 190°
2026-05-05 22:45 32.12344 -84.40472 37981 ft 512 kts 190°
2026-05-05 22:46 32.05206 -84.40324 37981 ft 513 kts 190°
2026-05-05 22:46 31.98022 -84.40183 37974 ft 511 kts 190°
2026-05-05 22:47 31.90877 -84.40039 37977 ft 514 kts 190°
2026-05-05 22:47 31.83713 -84.39899 37975 ft 509 kts 190°
2026-05-05 22:48 31.76612 -84.39760 37979 ft 513 kts 190°
2026-05-05 22:48 31.69403 -84.39611 37980 ft 514 kts 189°
2026-05-05 22:49 31.62178 -84.38870 37986 ft 525 kts 181°
2026-05-05 22:49 31.54902 -84.37277 37982 ft 530 kts 177°
2026-05-05 22:50 31.47671 -84.35381 37988 ft 532 kts 176°
2026-05-05 22:50 31.40435 -84.33455 37983 ft 531 kts 176°
2026-05-05 22:51 31.33225 -84.31580 37994 ft 531 kts 177°
2026-05-05 22:51 31.25922 -84.29726 37991 ft 534 kts 176°
2026-05-05 22:52 31.18711 -84.27914 37992 ft 529 kts 177°
2026-05-05 22:52 31.11435 -84.26096 37994 ft 532 kts 177°
2026-05-05 22:53 31.04209 -84.24285 37985 ft 533 kts 176°
2026-05-05 22:53 30.96971 -84.22470 37986 ft 533 kts 176°
2026-05-05 22:54 30.89681 -84.20641 37979 ft 528 kts 176°
2026-05-05 22:54 30.82481 -84.18842 37982 ft 530 kts 176°
2026-05-05 22:55 30.75267 -84.17049 37975 ft 528 kts 176°
2026-05-05 22:55 30.68029 -84.15251 37989 ft 530 kts 176°
2026-05-05 22:56 30.60826 -84.13461 37990 ft 527 kts 176°
2026-05-05 22:56 30.53566 -84.11663 37999 ft 528 kts 176°
2026-05-05 22:57 30.46378 -84.09880 38004 ft 527 kts 177°
2026-05-05 22:57 30.39199 -84.08024 38001 ft 530 kts 173°
2026-05-05 22:58 30.32077 -84.05415 38001 ft 537 kts 168°
2026-05-05 22:58 30.25054 -84.02255 37998 ft 540 kts 165°
2026-05-05 22:58 30.21602 -84.00622 37704 ft 539 kts 165°
2026-05-05 22:59 30.18107 -83.98956 36952 ft 538 kts 164°
2026-05-05 22:59 30.14630 -83.97310 36042 ft 539 kts 165°
2026-05-05 22:59 30.11165 -83.95680 35136 ft 537 kts 164°
2026-05-05 22:59 30.07687 -83.94057 34311 ft 538 kts 164°
2026-05-05 23:00 30.00729 -83.90852 34000 ft 542 kts 164°
2026-05-05 23:00 29.93661 -83.87629 33999 ft 549 kts 163°
2026-05-05 23:01 29.86574 -83.84394 34000 ft 544 kts 164°
2026-05-05 23:01 29.79498 -83.81175 34003 ft 546 kts 164°
2026-05-05 23:02 29.72453 -83.77976 33999 ft 544 kts 164°
2026-05-05 23:02 29.65373 -83.74766 33997 ft 543 kts 164°
2026-05-05 23:03 29.58314 -83.71573 33999 ft 544 kts 163°
2026-05-05 23:03 29.51272 -83.68397 34001 ft 545 kts 164°
2026-05-05 23:04 29.44216 -83.65212 33998 ft 543 kts 163°
2026-05-05 23:04 29.37123 -83.62010 33995 ft 542 kts 163°
2026-05-05 23:05 29.30046 -83.58818 33998 ft 542 kts 163°
2026-05-05 23:05 29.23020 -83.55655 33993 ft 540 kts 164°
2026-05-05 23:06 29.15951 -83.52481 33994 ft 541 kts 163°
2026-05-05 23:06 29.08946 -83.49342 33996 ft 541 kts 163°
2026-05-05 23:07 29.01935 -83.46206 33996 ft 541 kts 163°
2026-05-05 23:07 28.94949 -83.43081 34032 ft 523 kts 163°
2026-05-05 23:08 28.91642 -83.41588 34477 ft 500 kts 164°
2026-05-05 23:08 28.88450 -83.40150 35202 ft 493 kts 164°
2026-05-05 23:08 28.85292 -83.38737 35938 ft 486 kts 165°
2026-05-05 23:08 28.82155 -83.37338 36685 ft 478 kts 165°
2026-05-05 23:09 28.79079 -83.35971 37432 ft 469 kts 165°
2026-05-05 23:09 28.76085 -83.34642 37954 ft 466 kts 166°
2026-05-05 23:09 28.69937 -83.31935 38000 ft 479 kts 166°
2026-05-05 23:10 28.63615 -83.29157 37997 ft 493 kts 165°
2026-05-05 23:10 28.57189 -83.26318 37990 ft 496 kts 165°
2026-05-05 23:11 28.50786 -83.23473 37995 ft 497 kts 165°
2026-05-05 23:11 28.44199 -83.20561 37993 ft 511 kts 165°
2026-05-05 23:12 28.37464 -83.17591 37993 ft 524 kts 165°
2026-05-05 23:12 28.30543 -83.14545 37991 ft 537 kts 164°
2026-05-05 23:13 28.23583 -83.11476 37988 ft 535 kts 164°
2026-05-05 23:13 28.16638 -83.08415 37988 ft 533 kts 164°
2026-05-05 23:14 28.09705 -83.05359 37988 ft 535 kts 164°
2026-05-05 23:14 28.02788 -83.02315 37991 ft 534 kts 164°
2026-05-05 23:15 27.95843 -82.99271 37997 ft 533 kts 164°
2026-05-05 23:15 27.88887 -82.96230 38002 ft 533 kts 164°
2026-05-05 23:16 27.81987 -82.93216 37508 ft 531 kts 164°
2026-05-05 23:16 27.78545 -82.91714 36650 ft 531 kts 163°
2026-05-05 23:16 27.75129 -82.90223 35731 ft 528 kts 164°
2026-05-05 23:17 27.71713 -82.88734 34814 ft 526 kts 163°
2026-05-05 23:17 27.68299 -82.87249 33908 ft 527 kts 163°
2026-05-05 23:17 27.64899 -82.85775 33018 ft 528 kts 163°
2026-05-05 23:17 27.61425 -82.84269 32198 ft 530 kts 163°
2026-05-05 23:18 27.58006 -82.82784 31410 ft 530 kts 162°
2026-05-05 23:18 27.54564 -82.81286 31050 ft 528 kts 163°
2026-05-05 23:18 27.47725 -82.78310 30989 ft 527 kts 163°
2026-05-05 23:19 27.40890 -82.75352 30988 ft 526 kts 162°
2026-05-05 23:19 27.34043 -82.72389 30986 ft 526 kts 162°
2026-05-05 23:20 27.27190 -82.69427 30990 ft 526 kts 162°
2026-05-05 23:20 27.20359 -82.66489 30986 ft 526 kts 162°
2026-05-05 23:21 27.13538 -82.63551 30991 ft 526 kts 163°
2026-05-05 23:21 27.06678 -82.60596 30983 ft 526 kts 162°
2026-05-05 23:22 26.99849 -82.57627 30982 ft 525 kts 162°
2026-05-05 23:22 26.93016 -82.54700 30980 ft 525 kts 162°
2026-05-05 23:23 26.86193 -82.51788 30972 ft 525 kts 162°
2026-05-05 23:23 26.79348 -82.48864 30971 ft 524 kts 162°
2026-05-05 23:24 26.72500 -82.45942 30966 ft 524 kts 162°
2026-05-05 23:24 26.65702 -82.43034 30968 ft 523 kts 162°
2026-05-05 23:25 26.58846 -82.40108 30971 ft 523 kts 162°
2026-05-05 23:25 26.51981 -82.37195 30970 ft 532 kts 162°
2026-05-05 23:26 26.44985 -82.34223 30964 ft 532 kts 163°
2026-05-05 23:26 26.38068 -82.31278 30968 ft 532 kts 162°
2026-05-05 23:27 26.31144 -82.28336 30599 ft 530 kts 162°
2026-05-05 23:27 26.27675 -82.26866 29869 ft 530 kts 162°
2026-05-05 23:27 26.24219 -82.25400 29056 ft 527 kts 162°
2026-05-05 23:28 26.20804 -82.23952 28284 ft 526 kts 162°
2026-05-05 23:28 26.17388 -82.22506 27835 ft 528 kts 162°
2026-05-05 23:28 26.13940 -82.21050 27752 ft 529 kts 162°
2026-05-05 23:28 26.10456 -82.19581 27750 ft 534 kts 162°
2026-05-05 23:29 26.06989 -82.18119 27748 ft 532 kts 162°
2026-05-05 23:29 26.03514 -82.16653 27747 ft 534 kts 162°
2026-05-05 23:29 26.00031 -82.15186 27746 ft 533 kts 162°
2026-05-05 23:29 25.96574 -82.13731 27746 ft 531 kts 162°
2026-05-05 23:30 25.93077 -82.12260 27745 ft 534 kts 162°
2026-05-05 23:30 25.89609 -82.10802 27744 ft 533 kts 162°
2026-05-05 23:30 25.86150 -82.09346 27743 ft 532 kts 162°
2026-05-05 23:30 25.83389 -82.08185 27743 ft 533 kts 162°
2026-05-05 23:31 25.79832 -82.06690 27743 ft 533 kts 162°
2026-05-05 23:31 25.76388 -82.05243 27628 ft 530 kts 162°
2026-05-05 23:31 25.72903 -82.03778 27134 ft 531 kts 162°
2026-05-05 23:31 25.69494 -82.02348 26369 ft 529 kts 162°
2026-05-05 23:32 25.66025 -82.00893 25574 ft 529 kts 162°
2026-05-05 23:32 25.62565 -81.99445 24785 ft 529 kts 162°
2026-05-05 23:32 25.59132 -81.98007 24089 ft 521 kts 162°
2026-05-05 23:32 25.55768 -81.96598 23791 ft 516 kts 162°
2026-05-05 23:33 25.52410 -81.95194 23776 ft 517 kts 162°
2026-05-05 23:33 25.49049 -81.93791 23775 ft 517 kts 162°
2026-05-05 23:33 25.45670 -81.92381 23776 ft 517 kts 162°
2026-05-05 23:33 25.42281 -81.90968 23713 ft 519 kts 162°
2026-05-05 23:34 25.38917 -81.89567 23285 ft 518 kts 162°
2026-05-05 23:34 25.35569 -81.88171 22565 ft 512 kts 162°
2026-05-05 23:34 25.32240 -81.86781 21862 ft 503 kts 162°
2026-05-05 23:34 25.29014 -81.85434 21182 ft 497 kts 162°
2026-05-05 23:35 25.25810 -81.84100 20494 ft 491 kts 162°
2026-05-05 23:35 25.22600 -81.82764 19984 ft 483 kts 162°
2026-05-05 23:35 25.19491 -81.81471 19857 ft 482 kts 161°
2026-05-05 23:35 25.17278 -81.80553 19858 ft 485 kts 162°
2026-05-05 23:36 25.17104 -81.80481 19862 ft 485 kts 162°
2026-05-05 23:36 25.16935 -81.80411 19864 ft 486 kts 162°
2026-05-05 23:36 25.14555 -81.79425 19862 ft 487 kts 162°
2026-05-05 23:36 25.11383 -81.78110 19858 ft 485 kts 162°
2026-05-05 23:37 25.08221 -81.76800 19859 ft 485 kts 162°
2026-05-05 23:37 25.05080 -81.75497 19849 ft 471 kts 162°
2026-05-05 23:37 25.02083 -81.74249 19583 ft 446 kts 162°
2026-05-05 23:37 24.99196 -81.73047 18980 ft 437 kts 162°
2026-05-05 23:38 24.96376 -81.71877 18272 ft 426 kts 162°
2026-05-05 23:38 24.93622 -81.70737 17579 ft 420 kts 162°
2026-05-05 23:38 24.90914 -81.69616 16868 ft 415 kts 162°
2026-05-05 23:38 24.88222 -81.68504 16192 ft 408 kts 162°
2026-05-05 23:39 24.85595 -81.67419 15852 ft 404 kts 162°
2026-05-05 23:39 24.82958 -81.66331 15775 ft 407 kts 162°
2026-05-05 23:39 24.80274 -81.65226 15725 ft 406 kts 162°
2026-05-05 23:39 24.77605 -81.64127 15706 ft 406 kts 162°
2026-05-05 23:40 24.74983 -81.63045 15702 ft 402 kts 162°
2026-05-05 23:40 24.72403 -81.61978 15669 ft 381 kts 162°
2026-05-05 23:40 24.69978 -81.60974 15347 ft 371 kts 162°
2026-05-05 23:40 24.67537 -81.59967 14672 ft 373 kts 162°
2026-05-05 23:41 24.65106 -81.59018 13941 ft 374 kts 166°
2026-05-05 23:41 24.62574 -81.58428 13200 ft 371 kts 179°
2026-05-05 23:41 24.60002 -81.58634 11645 ft 388 kts 197°
2026-05-05 23:41 24.57550 -81.59806 8563 ft 435 kts 217°
2026-05-05 23:42 24.55625 -81.62277 6338 ft 440 kts 231°
2026-05-05 23:42 24.54740 -81.65337 4495 ft 424 kts 265°
2026-05-05 23:42 24.54932 -81.68486 3039 ft 418 kts 281°
2026-05-05 23:42 24.55665 -81.71471 554 ft 414 kts 285°
2026-05-05 23:43 24.55670 -81.74425 212 ft 367 kts 264°
2026-05-05 23:43 24.55526 -81.76957 997 ft 300 kts 269°
2026-05-05 23:43 24.55491 -81.78986 2011 ft 252 kts 271°
2026-05-05 23:43 24.55514 -81.80964 2746 ft 260 kts 271°
2026-05-05 23:44 24.55535 -81.82969 3230 ft 262 kts 271°
2026-05-05 23:44 24.55532 -81.84975 3703 ft 264 kts 270°
2026-05-05 23:44 24.55515 -81.87002 3951 ft 265 kts 270°
2026-05-05 23:44 24.55494 -81.89021 3967 ft 265 kts 270°
2026-05-05 23:45 24.55470 -81.91058 3970 ft 264 kts 270°
2026-05-05 23:45 24.55648 -81.93047 3966 ft 264 kts 288°
2026-05-05 23:45 24.56629 -81.94739 3972 ft 263 kts 317°
2026-05-05 23:45 24.58192 -81.95790 3992 ft 265 kts 337°
2026-05-05 23:46 24.59986 -81.96300 3996 ft 262 kts 354°
2026-05-05 23:46 24.61793 -81.95998 3949 ft 269 kts 22°
2026-05-05 23:46 24.63318 -81.94802 3961 ft 272 kts 45°
2026-05-05 23:46 24.64410 -81.93079 3967 ft 275 kts 64°
2026-05-05 23:47 24.64799 -81.91060 3968 ft 277 kts 92°
2026-05-05 23:47 24.64425 -81.88969 3978 ft 278 kts 105°
2026-05-05 23:47 24.63864 -81.86909 3970 ft 278 kts 107°
2026-05-05 23:47 24.63314 -81.84897 3970 ft 278 kts 106°
2026-05-05 23:48 24.62772 -81.82837 3969 ft 278 kts 105°
2026-05-05 23:48 24.62248 -81.80778 3969 ft 278 kts 105°
2026-05-05 23:48 24.61748 -81.78788 3840 ft 269 kts 105°
2026-05-05 23:48 24.61201 -81.76838 3395 ft 268 kts 112°
2026-05-05 23:49 24.60311 -81.75049 2952 ft 262 kts 122°
2026-05-05 23:49 24.59609 -81.73300 2839 ft 241 kts 98°
2026-05-05 23:49 24.59607 -81.71522 2794 ft 232 kts 83°
2026-05-05 23:49 24.59784 -81.69738 2447 ft 233 kts 82°
2026-05-05 23:50 24.59964 -81.67980 2020 ft 232 kts 83°
2026-05-05 23:50 24.60083 -81.66255 1877 ft 217 kts 85°
2026-05-05 23:50 24.60082 -81.64665 1863 ft 200 kts 102°
2026-05-05 23:50 24.59458 -81.63420 1850 ft 187 kts 142°
2026-05-05 23:51 24.58284 -81.62987 1587 ft 181 kts 194°
2026-05-05 23:51 24.57300 -81.63766 1007 ft 179 kts 238°
2026-05-05 23:51 24.56925 -81.65005 703 ft 164 kts 271°
2026-05-05 23:51 24.57190 -81.66165 424 ft 152 kts 292°
2026-05-05 23:52 24.57472 -81.67229 516 ft 151 kts 262°
2026-05-05 23:52 24.56937 -81.68213 664 ft 161 kts 218°
2026-05-05 23:52 24.56273 -81.69184 647 ft 158 kts 250°
2026-05-05 23:52 24.55891 -81.70335 453 ft 160 kts 259°
2026-05-05 23:53 24.55688 -81.71517 319 ft 156 kts 265°
2026-05-05 23:53 24.55644 -81.72705 269 ft 155 kts 275°
2026-05-05 23:53 24.55632 -81.73884 154 ft 154 kts 269°
2026-05-05 23:53 24.55630 -81.75040 31 ft 146 kts 269°
2026-05-05 23:54 24.55620 -81.75840 9 ft 40 kts 267°
2026-05-05 23:54 24.55616 -81.76140 9 ft 38 kts 269°
2026-05-05 23:54 24.55529 -81.76189 9 ft 12 kts 120°
2026-05-05 23:54 24.55523 -81.76096 9 ft 12 kts 91°
2026-05-05 23:55 24.55523 -81.76005 9 ft 11 kts 88°
2026-05-05 23:55 24.55525 -81.75917 9 ft 11 kts 88°
2026-05-05 23:55 24.55527 -81.75832 9 ft 10 kts 88°
2026-05-05 23:55 24.55530 -81.75749 9 ft 10 kts 88°
2026-05-05 23:56 24.55530 -81.75669 9 ft 12 kts 91°
2026-05-05 23:56 24.55529 -81.75564 9 ft 14 kts 88°
2026-05-05 23:56 24.55532 -81.75458 9 ft 13 kts 89°